Home   Weather   Zerbst/Anhalt   Past weeks

Flag for Germany Past Weather in Zerbst/Anhalt, Saxony-Anhalt, Germany — Yesterday and Last 2 Weeks

Now
61 °F

Clear.


Feels Like: 61 °F
Forecast: 55 / 69 °F
Wind: 8 mph from Southeast

Location: Leipzig-Schkeuditz

Current Time: Jul 23, 2017 at 5:07:58 am

Latest Report: Jul 23, 2017 at 4:20 am


Visibility: 10 mi

Pressure: 29.89 "Hg

Humidity: 100%

Dew Point: 61 °F

Location of Zerbst/AnhaltLocation

Past Weather in Zerbst/Anhalt — Graph

°F

Zerbst/Anhalt Temperature Yesterday

Maximum temperature yesterday: 79 °F (at 4:50 pm)
Minimum temperature yesterday: 66 °F (at 1:20 am)
Average temperature yesterday: 71 °F

High & Low Weather Summary for the Past Weeks

 TemperatureHumidityPressure
High86 °F (Jul 19, 3:20 pm)100% (Jul 10, 7:20 am)30.24 "Hg (Jul 10, 7:20 am)
Low50 °F (Jul 13, 4:50 am)35% (Jul 19, 3:20 pm)29.68 "Hg (Jul 12, 6:50 pm)
Average67 °F74%29.98 "Hg
* Reported Jul 8 2:20 am — Jul 23 2:50 am, Zerbst/Anhalt. Weather by CustomWeather, © 2017

Note: Actual official high and low records may vary slightly from our data, if they occured in-between our weather recording intervals... More about our weather records

Advertising

Zerbst/Anhalt Weather History for the Previous 24 Hours

Scroll right to see more
 ConditionsComfort  
Time TempWeatherWind HumidityBarometerVisibility
2:50 am
Sun, Jul 23
63 °FClear.7 mph100%29.89 "Hg10 mi
2:20 am63 °FClear.5 mph100%29.89 "Hg10 mi
1:50 am63 °FMild.2 mph100%29.89 "HgN/A
1:20 am64 °FClear.3 mph100%29.89 "Hg10 mi
12:50 am64 °FClear.2 mph100%29.92 "Hg10 mi
12:20 am64 °FClear.5 mph100%29.92 "Hg10 mi
11:55 pm
Sat, Jul 22
66 °FClear.6 mph94%29.92 "Hg10 mi
11:50 pm66 °FClear.6 mph94%29.92 "Hg10 mi
11:20 pm66 °FPassing clouds.7 mph88%29.92 "HgN/A
10:50 pm68 °FPassing clouds.5 mph88%29.92 "HgN/A
10:20 pm68 °FSprinkles. Partly cloudy.6 mph83%29.95 "HgN/A
9:53 pm70 °FThunderstorms. Partly cloudy.13 mph78%29.95 "HgN/A
9:20 pm73 °FPartly cloudy.7 mph69%29.92 "HgN/A
8:50 pm73 °FSunny.5 mph69%29.92 "Hg10 mi
8:20 pm75 °FSunny.2 mph61%29.92 "Hg10 mi
7:50 pm77 °FSunny.3 mph57%29.92 "Hg10 mi
7:20 pm79 °FPartly sunny.3 mph54%29.92 "HgN/A
6:50 pm79 °FPartly sunny.6 mph58%29.92 "HgN/A
6:20 pm79 °FPartly sunny.8 mph54%29.92 "HgN/A
5:50 pm79 °FPartly sunny.7 mph58%29.89 "HgN/A
5:20 pm79 °FBroken clouds.7 mph54%29.92 "HgN/A
4:50 pm79 °FScattered clouds.7 mph61%29.92 "HgN/A
4:20 pm75 °FScattered clouds.8 mph65%29.92 "HgN/A
3:50 pm75 °FScattered clouds.12 mph65%29.92 "HgN/A
2:50 pm73 °FBroken clouds.8 mph74%29.95 "HgN/A
2:20 pm70 °FLight rain. Broken clouds.10 mph83%29.95 "HgN/A
1:50 pm72 °FLight rain. Partly sunny.13 mph73%29.95 "HgN/A
1:20 pm72 °FPartly sunny.10 mph73%29.95 "HgN/A
12:50 pm72 °FPartly sunny.8 mph69%29.92 "HgN/A
12:20 pm72 °FLight rain. Partly sunny.3 mph73%29.92 "HgN/A
11:50 am72 °FLight rain. Partly sunny.5 mph78%29.92 "HgN/A
11:20 am72 °FSprinkles. Broken clouds.6 mph78%29.92 "HgN/A
10:50 am72 °FSprinkles. Broken clouds.8 mph78%29.92 "HgN/A
10:20 am72 °FBroken clouds.12 mph78%29.92 "HgN/A
9:50 am72 °FPartly sunny.13 mph73%29.89 "HgN/A
8:50 am70 °FBroken clouds.10 mph78%29.89 "HgN/A
8:20 am70 °FScattered showers. Broken clouds.6 mph78%29.92 "HgN/A
7:50 am68 °FScattered showers. Broken clouds.7 mph78%29.89 "HgN/A
7:20 am66 °FBroken clouds.9 mph83%29.89 "HgN/A
6:50 am66 °FScattered showers. Broken clouds.9 mph83%29.89 "HgN/A
6:20 am66 °FScattered showers. Broken clouds.12 mph83%29.89 "HgN/A
5:50 am66 °FThundershowers. Broken clouds.12 mph83%29.89 "HgN/A
5:20 am66 °FPartly sunny.12 mph83%29.89 "HgN/A
Weather by CustomWeather, © 2017

See weather overviewHow to use our weather pages